OPS 4682 DEB, 38424

Orbit data source: Space-Track

OPS 4682 DEB, 38424 is space debris in LEO originally from a launch on Sat, 03 Apr 1965 UTC launched from the Air Force Western Test Range (AFWTR). Debris objects in space refer to the collection of defunct objects orbiting the Earth. Examples of debris include non-operational satellites, rocket bodies, and fragments generated from explosions, collisions, or faulty payload assembly.

Loading next visibility...
Identifier
38424, 1965-027ED
Orbit
LEO
Country
Flag of USUS
Related business
Manufacturer
Unknown
Mission
Spacecraft
Bus & Motor
Unknown
Mass
Unknown
Launch date (UTC)
1965-04-03 (61 years ago)
Launch vehicle
Unknown
Launch site
Air Force Western Test Range (AFWTR)
Object type
Payload
Rocket body
Debris
Shape & HBR
Unknown shape, 0.1 m
Radar Cross Section
Medium (>0.1 m² and <1 m²)

Expand to show TLE details & history
Last TLE update: 19 hours ago

TLE from 19 hours ago
0 OPS 4682 DEB
1 38424U 65027ED  26207.42452747  .00000857  00000-0  26657-2 0  9991
2 38424  90.2364   8.0766 0027570  50.5102 309.8455 13.03917782316946
Epoch: 2026-07-26T10:11Z
TLE epoch observation values (Epoch: 2026-07-26T10:11:19.173Z)
Latitude
0.00005°
Longitude
-88.87594°
Altitude
1,236.227 km
Speed
7.243 km/s
True Right ascension
00h 32m 18s
True Declination
0° 00' 00"
Sunlit
Object was in daylight at epoch
Visualization orbit readout
Latitude
Unknown
Longitude
Unknown
Altitude
Unknown
Speed
Unknown
Apparent Right ascension
Unknown
Apparent Declination
Unknown
Sunlit
N/A
Visualization observer readout
Local Sidereal Time
18:59:53
Azimuth
Unknown
Elevation
Unknown
Doppler factor
Unknown
Orbital elements
Apogee altitude
1,264.91 km
Perigee altitude
1,222.882 km
Semi-major axis
7,622.033 km
Eccentricity
0.00276
Inclination
90.2364°
RAAN
8.0766°
Arg. of periapsis
50.5102°
True anomaly
309.6024°
Mean anomaly
309.8455°
Eccentric anomaly
309.724°
Mean motion
3.26165 °/min
Orbital period
110.37 mins
BSTAR
0.0026657
Loading maneuver chart data...
Computing Atmospheric mass density...
Loading historical data...
Loading historical data...
Loading historical data...
Loading historical data...
Loading historical data...
Loading historical data...
Loading historical data...

Documentation

Showing up to 5 results
|